YO6IKB-10 Weather Reports


time (UTC)temp
F
wind
direction
speed
knots
gust
knots
rain 1hr
in
rain 24hr
in
rain mn
in
humidity
%
barometer
mb
20260505214324 57 45 0.9 2.6 0.00 0.00 0.00 64 1009.9
20260505213824 57 67 0.0 1.7 0.00 0.00 0.00 64 1009.9
20260505213323 57 67 0.0 3.5 0.00 0.00 0.00 64 1010.0
20260505212823 57 45 1.7 7.0 0.00 0.00 0.00 64 1010.0
20260505212323 58 45 0.9 2.6 0.00 0.00 0.00 63 1010.1
20260505211823 58 45 0.0 2.6 0.00 0.00 0.00 63 1010.0
20260505211322 59 22 0.0 3.5 0.00 0.00 0.00 62 1010.0
20260505210822 59 22 2.6 5.2 0.00 0.00 0.00 63 1010.0
20260505210322 59 45 0.0 2.6 0.00 0.00 0.00 62 1010.0
20260505205821 59 45 1.7 2.6 0.00 0.00 0.00 62 1009.9
20260505205321 59 67 0.0 3.5 0.00 0.00 0.00 62 1009.8
20260505204821 59 67 0.0 2.6 0.00 0.00 0.00 62 1009.8
20260505204320 59 67 2.6 3.5 0.00 0.00 0.00 61 1009.8
20260505203820 59 45 0.0 1.7 0.00 0.00 0.00 60 1009.9
20260505203320 60 45 1.7 1.7 0.00 0.00 0.00 58 1009.9
20260505202820 61 22 0.0 3.5 0.00 0.00 0.00 56 1009.9
20260505202319 61 337 2.6 2.6 0.00 0.00 0.00 54 1009.8
20260505201819 62 202 0.0 2.6 0.00 0.00 0.00 53 1009.7
20260505201319 62 202 0.0 1.7 0.00 0.00 0.00 53 1009.7
20260505200818 62 202 1.7 1.7 0.00 0.00 0.00 53 1009.7
20260505200318 63 180 0.0 0.9 0.00 0.00 0.00 52 1009.5
20260505195818 62 180 0.0 0.9 0.00 0.00 0.00 52 1009.4
20260505195318 62 180 0.0 0.9 0.00 0.00 0.00 52 1009.5
20260505194817 62 180 0.0 0.0 0.00 0.00 0.00 52 1009.5
20260505194317 63 180 0.0 0.0 0.00 0.00 0.00 51 1009.4
20260505193817 63 180 0.0 0.9 0.00 0.00 0.00 51 1009.4
20260505193316 63 180 0.0 0.9 0.00 0.00 0.00 51 1009.5
20260505192816 63 202 0.0 0.0 0.00 0.00 0.00 51 1009.5
20260505192316 63 202 0.0 0.0 0.00 0.00 0.00 51 1009.4
20260505191815 63 202 0.0 1.7 0.00 0.00 0.00 50 1009.4
20260505191315 64 202 0.0 0.0 0.00 0.00 0.00 50 1009.4
20260505190815 64 202 0.0 0.0 0.00 0.00 0.00 50 1009.3
20260505190315 64 202 0.0 1.7 0.00 0.00 0.00 49 1009.4
20260505185814 64 202 0.0 1.7 0.00 0.00 0.00 49 1009.4
20260505185314 65 202 0.0 0.9 0.00 0.00 0.00 48 1009.5
20260505184814 65 202 0.0 0.0 0.00 0.00 0.00 48 1009.4
20260505184313 65 202 0.0 0.0 0.00 0.00 0.00 47 1009.2
20260505183813 66 202 0.0 0.0 0.00 0.00 0.00 47 1009.2
20260505183313 66 202 0.0 0.0 0.00 0.00 0.00 47 1009.2
20260505182813 66 202 0.0 0.0 0.00 0.00 0.00 47 1009.1
20260505182312 66 202 0.0 0.9 0.00 0.00 0.00 47 1009.2
20260505181812 66 202 0.0 2.6 0.00 0.00 0.00 47 1009.0
20260505181312 67 202 0.9 4.3 0.00 0.00 0.00 47 1009.0
20260505180811 67 90 0.0 2.6 0.00 0.00 0.00 47 1008.8
20260505180311 67 90 2.6 3.5 0.00 0.00 0.00 47 1008.6
20260505175811 67 90 0.0 2.6 0.00 0.00 0.00 47 1008.4
20260505175310 68 67 2.6 2.6 0.00 0.00 0.00 46 1008.3
20260505174810 68 90 0.0 0.9 0.00 0.00 0.00 45 1008.5
20260505174310 69 90 0.0 0.0 0.00 0.00 0.00 45 1008.3
20260505173810 69 90 0.0 5.2 0.00 0.00 0.00 45 1008.3
20260505173309 69 67 2.6 5.2 0.00 0.00 0.00 44 1008.3
20260505172809 71 67 5.2 9.6 0.00 0.00 0.00 43 1008.3
20260505172309 72 67 5.2 7.8 0.00 0.00 0.00 39 1008.2
20260505171808 73 337 0.0 0.9 0.00 0.00 0.00 37 1008.2
20260505171308 74 292 0.0 0.0 0.00 0.00 0.00 38 1008.2
20260505170808 74 292 0.0 0.0 0.00 0.00 0.00 38 1008.2
20260505170308 74 292 0.0 0.0 0.00 0.00 0.00 38 1008.2
20260505165807 75 292 0.0 1.7 0.00 0.00 0.00 37 1008.2
20260505165307 75 292 0.0 1.7 0.00 0.00 0.00 37 1008.2
20260505164807 75 292 0.0 2.6 0.00 0.00 0.00 37 1008.2
20260505164306 75 292 0.0 3.5 0.00 0.00 0.00 37 1008.2
20260505163806 75 292 0.0 1.7 0.00 0.00 0.00 37 1008.2
20260505163306 75 292 0.0 3.5 0.00 0.00 0.00 36 1008.2
20260505162805 75 292 0.0 3.5 0.00 0.00 0.00 36 1008.2
20260505162307 75 292 0.0 3.5 0.00 0.00 0.00 37 1008.2
20260505161805 75 292 0.0 0.9 0.00 0.00 0.00 36 1008.2
20260505161305 76 315 0.0 3.5 0.00 0.00 0.00 34 1008.2
20260505160804 76 315 3.5 3.5 0.00 0.00 0.00 34 1008.2
20260505160304 76 315 0.0 0.9 0.00 0.00 0.00 33 1008.2
20260505153302 83 315 0.0 6.1 0.00 0.00 0.00 30 1008.3
20260505152802 85 315 0.0 2.6 0.00 0.00 0.00 30 1008.2
20260505152304 87 225 0.0 7.8 0.00 0.00 0.00 29 1008.3
20260505151801 88 180 6.1 8.7 0.00 0.00 0.00 28 1008.3
20260505151301 89 292 0.0 8.7 0.00 0.00 0.00 28 1008.4
20260505150801 88 292 0.0 1.7 0.00 0.00 0.00 29 1008.4
20260505150301 87 292 0.9 3.5 0.00 0.00 0.00 29 1008.6
20260505140257 79 292 0.9 5.2 0.00 0.00 0.00 34 1009.5
20260505130253 80 22 0.0 4.3 0.00 0.00 0.00 31 1010.2
20260505124753 78 292 4.3 5.2 0.00 0.00 0.00 32 1010.4
20260505124252 79 0 0.0 7.8 0.00 0.00 0.00 31 1010.4
20260505123752 79 292 0.0 7.8 0.00 0.00 0.00 32 1010.5
20260505123252 80 292 0.0 3.5 0.00 0.00 0.00 33 1010.6
20260505122751 79 292 1.7 4.3 0.00 0.00 0.00 34 1010.6
20260505122251 79 45 0.0 3.5 0.00 0.00 0.00 32 1010.7
20260505121751 80 0 0.9 4.3 0.00 0.00 0.00 32 1010.7
20260505121251 80 292 4.3 4.3 0.00 0.00 0.00 31 1010.8
20260505120750 81 315 0.0 5.2 0.00 0.00 0.00 33 1010.8
20260505120250 80 292 1.7 3.5 0.00 0.00 0.00 34 1010.9
20260505115750 80 292 0.0 3.5 0.00 0.00 0.00 32 1011.0
20260505115249 80 292 2.6 5.2 0.00 0.00 0.00 34 1011.1
20260505114749 78 292 0.9 1.7 0.00 0.00 0.00 34 1011.2
20260505114249 78 337 0.0 3.5 0.00 0.00 0.00 33 1011.2
20260505113749 80 45 0.0 4.3 0.00 0.00 0.00 31 1011.4
20260505113248 81 0 3.5 5.2 0.00 0.00 0.00 34 1011.3
20260505112748 80 292 0.9 5.2 0.00 0.00 0.00 36 1011.5
20260505112248 79 315 5.2 5.2 0.00 0.00 0.00 34 1011.5
20260505111747 78 315 0.9 5.2 0.00 0.00 0.00 34 1011.5
20260505111247 79 337 1.7 6.1 0.00 0.00 0.00 32 1011.5
20260505110747 80 45 0.0 6.1 0.00 0.00 0.00 34 1011.6
20260505110246 79 202 0.0 7.8 0.00 0.00 0.00 36 1011.6
20260505101744 79 292 1.7 7.0 0.00 0.00 0.00 40 1012.1
20260505101244 78 292 0.0 5.2 0.00 0.00 0.00 40 1012.1
20260505100743 78 292 1.7 3.5 0.00 0.00 0.00 38 1012.1
20260505100243 78 292 0.0 7.8 0.00 0.00 0.00 41 1012.2
20260505095743 77 225 5.2 5.2 0.00 0.00 0.00 39 1012.3
20260505095242 79 337 1.7 3.5 0.00 0.00 0.00 39 1012.3
20260505094742 79 247 2.6 5.2 0.00 0.00 0.00 41 1012.5
20260505094242 78 292 0.0 1.7 0.00 0.00 0.00 41 1012.4
20260505093742 78 292 0.0 3.5 0.00 0.00 0.00 41 1012.5
20260505093241 78 315 0.0 3.5 0.00 0.00 0.00 40 1012.6
20260505092741 78 292 0.0 7.8 0.00 0.00 0.00 42 1012.6
20260505092241 78 292 3.5 3.5 0.00 0.00 0.00 42 1012.7
20260505091740 78 247 3.5 3.5 0.00 0.00 0.00 42 1012.7
20260505091240 77 202 0.0 6.1 0.00 0.00 0.00 43 1012.8
20260505090740 76 247 0.0 3.5 0.00 0.00 0.00 43 1012.9
20260505090239 76 292 0.0 3.5 0.00 0.00 0.00 44 1012.9
20260505085739 75 315 0.0 8.7 0.00 0.00 0.00 42 1012.9
20260505085239 76 337 1.7 4.3 0.00 0.00 0.00 42 1012.9
20260505084739 75 247 0.9 1.7 0.00 0.00 0.00 44 1013.0
20260505084238 76 292 0.0 3.5 0.00 0.00 0.00 42 1013.0
20260505083738 76 292 0.9 7.0 0.00 0.00 0.00 43 1013.1
20260505083238 76 315 2.6 6.1 0.00 0.00 0.00 44 1013.1
20260505082737 75 315 0.0 5.2 0.00 0.00 0.00 43 1013.1
20260505082237 76 247 0.0 6.1 0.00 0.00 0.00 43 1013.2
20260505081737 75 292 0.0 1.7 0.00 0.00 0.00 43 1013.3
20260505081237 74 292 0.0 3.5 0.00 0.00 0.00 44 1013.3
20260505080736 74 247 0.0 3.5 0.00 0.00 0.00 44 1013.2
20260505080236 73 315 0.0 2.6 0.00 0.00 0.00 46 1013.3
20260505075736 71 315 0.0 3.5 0.00 0.00 0.00 46 1013.4
20260505075235 69 292 3.5 3.5 0.00 0.00 0.00 48 1013.3
20260505074735 68 22 0.0 1.7 0.00 0.00 0.00 49 1013.4
20260505074235 68 22 1.7 1.7 0.00 0.00 0.00 50 1013.5
20260505073734 68 22 0.9 1.7 0.00 0.00 0.00 50 1013.5
20260505073234 67 45 0.0 1.7 0.00 0.00 0.00 51 1013.5
20260505072734 67 0 0.9 1.7 0.00 0.00 0.00 52 1013.5
20260505072234 66 22 0.0 0.9 0.00 0.00 0.00 54 1013.6
20260505071733 65 45 0.0 1.7 0.00 0.00 0.00 55 1013.6
20260505071233 64 22 0.0 1.7 0.00 0.00 0.00 57 1013.6
20260505070733 63 45 0.9 1.7 0.00 0.00 0.00 57 1013.7
20260505070232 63 45 0.0 2.6 0.00 0.00 0.00 58 1013.6
20260505065732 62 45 0.0 1.7 0.00 0.00 0.00 59 1013.6
20260505065232 62 45 0.0 2.6 0.00 0.00 0.00 58 1013.7
20260505064732 62 45 0.0 1.7 0.00 0.00 0.00 59 1013.8
20260505064231 62 45 0.0 1.7 0.00 0.00 0.00 60 1013.7
20260505063731 62 45 0.9 0.9 0.00 0.00 0.00 60 1013.8
20260505063231 62 45 0.0 1.7 0.00 0.00 0.00 59 1013.8
20260505062730 62 45 0.0 2.6 0.00 0.00 0.00 59 1013.8
20260505062230 61 45 0.0 1.7 0.00 0.00 0.00 59 1013.7
20260505061730 61 45 0.0 0.9 0.00 0.00 0.00 59 1013.7
20260505061230 61 45 0.0 1.7 0.00 0.00 0.00 58 1013.7
20260505060729 62 45 0.0 1.7 0.00 0.00 0.00 58 1013.8
20260505060229 61 45 0.0 0.9 0.00 0.00 0.00 59 1013.9
20260505055729 62 45 0.0 1.7 0.00 0.00 0.00 59 1013.9
20260505054728 61 45 0.0 0.9 0.00 0.00 0.00 61 1013.7
20260505054228 59 45 0.9 0.9 0.00 0.00 0.00 63 1013.7
20260505053727 58 45 0.0 0.9 0.00 0.00 0.00 64 1013.8
20260505053227 57 45 0.0 0.0 0.00 0.00 0.00 65 1013.8
20260505052727 55 45 0.0 0.0 0.00 0.00 0.00 66 1013.8
20260505052227 54 45 0.0 1.7 0.00 0.00 0.00 67 1013.8
20260505051726 54 45 0.0 3.5 0.00 0.00 0.00 67 1013.7
20260505051226 54 67 0.0 1.7 0.00 0.00 0.00 68 1013.7
20260505050726 53 22 0.0 0.0 0.00 0.00 0.00 69 1013.6
20260505050225 53 22 0.0 0.9 0.00 0.00 0.00 70 1013.6
20260505041723 48 45 0.0 1.7 0.00 0.00 0.00 77 1013.5
20260505041222 48 67 0.0 0.0 0.00 0.00 0.00 77 1013.5
20260505040722 47 45 0.0 1.7 0.00 0.00 0.00 79 1013.4
20260505040222 46 22 0.9 0.9 0.00 0.00 0.00 80 1013.3
20260505035721 45 0 0.0 0.0 0.00 0.00 0.00 80 1013.3
20260505035221 45 0 0.0 0.0 0.00 0.00 0.00 80 1013.2
20260505034721 45 0 0.0 0.9 0.00 0.00 0.00 80 1013.2
20260505034221 45 337 0.0 1.7 0.00 0.00 0.00 80 1013.2
20260505033720 45 337 0.0 1.7 0.00 0.00 0.00 79 1013.2
20260505033220 45 22 0.0 0.0 0.00 0.00 0.00 79 1013.1
20260505032720 45 22 0.0 0.0 0.00 0.00 0.00 79 1013.2
20260505032220 45 22 0.0 0.0 0.00 0.00 0.00 79 1013.1
20260505031719 45 22 0.0 0.0 0.00 0.00 0.00 79 1013.1
20260505031219 45 22 0.0 0.0 0.00 0.00 0.00 79 1012.9
20260505030719 45 22 0.0 0.0 0.00 0.00 0.00 79 1012.9
20260505030218 45 22 0.0 0.0 0.00 0.00 0.00 79 1013.0
20260505025718 45 22 0.0 0.0 0.00 0.00 0.00 79 1012.9
20260505025218 45 22 0.0 0.0 0.00 0.00 0.00 78 1012.9
20260505024717 45 22 0.0 0.0 0.00 0.00 0.00 78 1013.0
20260505024217 46 22 0.0 0.0 0.00 0.00 0.00 78 1013.0
20260505023717 46 22 0.0 0.0 0.00 0.00 0.00 77 1012.9
20260505023217 46 22 0.0 0.0 0.00 0.00 0.00 78 1013.0
20260505022716 46 22 0.0 0.0 0.00 0.00 0.00 77 1013.0
20260505022216 46 22 0.0 0.0 0.00 0.00 0.00 77 1013.1
20260505021716 46 22 0.0 0.0 0.00 0.00 0.00 77 1012.9
20260505021215 46 22 0.0 0.9 0.00 0.00 0.00 76 1012.9
20260505020715 46 45 0.0 0.9 0.00 0.00 0.00 76 1012.8
20260505020215 47 45 0.0 0.0 0.00 0.00 0.00 76 1013.1
20260505015714 47 45 0.0 0.9 0.00 0.00 0.00 76 1013.0
20260505015214 47 45 0.0 0.0 0.00 0.00 0.00 76 1013.0
20260505014714 47 45 0.0 0.0 0.00 0.00 0.00 77 1013.0
20260505014214 47 45 0.0 0.9 0.00 0.00 0.00 77 1012.9
20260505013713 47 45 0.9 0.9 0.00 0.00 0.00 77 1012.8
20260505013213 47 22 0.0 0.0 0.00 0.00 0.00 76 1012.9
20260505012713 47 22 0.0 0.0 0.00 0.00 0.00 76 1012.8
20260505012212 47 22 0.0 0.0 0.00 0.00 0.00 76 1012.8
20260505011712 47 22 0.0 0.0 0.00 0.00 0.00 76 1012.8
20260505011212 47 22 0.0 0.9 0.00 0.00 0.00 77 1012.6
20260505010712 47 22 0.0 0.9 0.00 0.00 0.00 76 1012.7
20260505010211 47 22 0.0 0.0 0.00 0.00 0.00 76 1012.6
20260505005711 47 22 0.0 0.0 0.00 0.00 0.00 76 1012.7
20260505005211 47 22 0.0 0.0 0.00 0.00 0.00 76 1012.7
20260505004710 47 22 0.0 1.7 0.00 0.00 0.00 77 1012.6
20260505004210 47 22 1.7 1.7 0.00 0.00 0.00 77 1012.7
20260505003710 48 22 0.0 0.9 0.00 0.00 0.00 76 1012.6
20260505003209 48 22 0.0 0.0 0.00 0.00 0.00 76 1012.7
20260505002709 48 22 0.0 0.0 0.00 0.00 0.00 76 1012.5
20260505002209 48 22 0.0 1.7 0.00 0.00 0.00 76 1012.6
20260505001709 48 0 0.0 0.0 0.00 0.00 0.00 75 1012.5
20260505001208 48 0 0.0 0.0 0.00 0.00 0.00 75 1012.4
20260505000708 48 22 0.0 0.0 0.00 0.00 0.00 75 1012.5
20260505000208 48 22 0.0 0.0 0.00 0.00 0.00 75 1012.5
20260504235707 48 22 0.0 0.9 0.00 0.00 0.00 75 1012.5
20260504235207 49 22 0.0 0.0 0.00 0.00 0.00 74 1012.4
20260504234707 49 22 0.0 0.0 0.00 0.00 0.00 74 1012.4
20260504234207 49 22 0.0 0.0 0.00 0.00 0.00 74 1012.4
20260504233706 49 22 0.0 0.0 0.00 0.00 0.00 74 1012.4
20260504233206 49 22 0.0 1.7 0.00 0.00 0.00 74 1012.5
20260504232706 49 22 1.7 1.7 0.00 0.00 0.00 74 1012.5
20260504232205 49 112 0.0 0.9 0.00 0.00 0.00 73 1012.5
20260504231705 50 112 0.0 0.0 0.00 0.00 0.00 73 1012.4
20260504231205 50 112 0.0 0.0 0.00 0.00 0.00 72 1012.6
20260504230705 50 112 0.0 0.0 0.00 0.00 0.00 72 1012.5
20260504230204 50 112 0.0 0.0 0.00 0.00 0.00 72 1012.6
20260504225704 50 112 0.0 0.0 0.00 0.00 0.00 71 1012.6
20260504225204 50 112 0.0 0.0 0.00 0.00 0.00 71 1012.6
20260504224703 50 112 0.0 0.0 0.00 0.00 0.00 72 1012.5
20260504224203 51 112 0.0 0.9 0.00 0.00 0.00 71 1012.6
20260504223703 51 112 0.0 0.0 0.00 0.00 0.00 69 1012.5
20260504223202 51 112 0.0 0.0 0.00 0.00 0.00 69 1012.5
20260504222702 51 112 0.0 0.0 0.00 0.00 0.00 69 1012.5
20260504222202 52 112 0.0 0.0 0.00 0.00 0.00 68 1012.5
20260504221702 52 112 0.0 0.0 0.00 0.00 0.00 67 1012.5
20260504221201 52 112 0.0 0.0 0.00 0.00 0.00 67 1012.5
20260504220701 53 112 0.0 0.0 0.00 0.00 0.00 66 1012.5
20260504220201 53 112 0.0 0.0 0.00 0.00 0.00 66 1012.4
20260504215700 53 112 0.0 0.0 0.00 0.00 0.00 65 1012.5
20260504215200 53 112 0.0 0.0 0.00 0.00 0.00 65 1012.4
20260504214700 53 112 0.0 0.0 0.00 0.00 0.00 66 1012.5